Погода в Лавале

Франция     48°03′16″N   0°45′25″E
темп.,
°C
ветер,
м/с
пор.,
м/с
влажн.,
%
обл.,
%
осадки,
мм/ч
давл.,
гПа
погр.,
м
2 августа, пн
пн223:00+14з22905 0.1 101525
02:00+12з22945 0.1 101636
05:00+11з229657 0.0 101619
08:00+12зюз23936 0.0 101696
11:00+19юз34688 0.1 1016838
14:00+22зюз554699 0.4 10151961
17:00+21з565390 0.2 10151399
20:00+18зсз4773100 0.7 1014415
3 августа, вт
вт323:00+14ссз3591100 0.2 101696
02:00+12сз239092 0.2 101578
05:00+11зсз349496 0.0 101569
08:00+12з2491100 0.0 1015142
11:00+15з3570100 0.0 1015490
14:00+15юз5670100 0.0 1015577
17:00+15юз4564100 0.0 1015516
20:00+13ю2388100 0.8 1014212
4 августа, ср
ср423:00+12в3596100 0.6 1013145
02:00+13в61097100 6.7 1011360
05:00+13в51099100 8.3 1008521
08:00+13св5798100 17.4 1009387
11:00+14ссв5894100 2.3 1011478
14:00+18ссв797260 2.4 10121141
17:00+18сз786995 0.3 1013951
20:00+18сз46690 0.3 1014809
5 августа, чт
чт523:00+12сз3592100 0.0 101677
02:00+12з1190100 0.0 101511
05:00+12ююз3693100 0.0 1014126
08:00+13ююз399329 0.0 1013330
11:00+16ю61186100 0.3 1011725
14:00+17ююз71385100 0.6 1009864
17:00+17ююз71495100 0.9 1007825
20:00+19юз7128285 1.5 1006882
6 августа, пт
пт623:00+16юз61391100 0.3 1006578
02:00+15зюз6129585 0.6 1007570
05:00+15зюз61395100 0.1 1007532
08:00+14зюз5119372 0.2 1008629
11:00+16зюз588298 0.1 10091017
14:00+19зюз6863100 0.1 10091612
17:00+20юз585699 0.1 10081798
20:00+19зюз6958100 0.1 1007769